Tracking 27405 objects as of 1-Jun-2023
HD Live streaming from Space Station
objects crossing your sky now

STARLINK 1062

Track STARLINK 1062 now!
10-day predictions
STARLINK 1062 is classified as:


NORAD ID: 44767
Int'l Code: 2019-074BG
Perigee: 553.6 km
Apogee: 555.1 km
Inclination: 53.1 °
Period: 95.6 minutes
Semi major axis: 6925 km
RCS: Unknown
Launch date: November 11, 2019
Source: United States (US)
Launch site: AIR FORCE EASTERN TEST RANGE (AFETR)
Your satellite tracking list
Your tracking list is empty




NASA's NSSDC Master Catalog

Two Line Element Set (TLE):
1 44767U 19074BG  23152.08065573  .00002206  00000-0  16693-3 0  9994
2 44767  53.0536  92.3795 0001085 101.9365 258.1745 15.06396334195744
Source of the keplerian elements: AFSPC